Meath Environmental Platform

Observations for Trim Market St

Time AQI Temp °C Hum % Pres Pa CO μg/m³ H₂S μg/m³ NO μg/m³ NO₂ μg/m³ O₃ μg/m³ SO₂ μg/m³ PM1 μg/m³ PM2.5 μg/m³ PM10 μg/m³
Saturday 22 August 2026
04:29 2 12.8 69 56,199 0.36 0 3.34 8.84 70.16 0 1.43 3.57 6.27
04:22 2 12.8 69 56,359 0.35 0 2.96 8.57 64.93 0 1.43 3.59 6.26
04:21 2 12.8 69 56,386 0.35 0 2.96 8.96 69.12 0 2.85 4.57 7.53
04:20 2 12.8 69 56,415 0.35 0 3.38 8.96 61.78 0 1.43 3.6 5.63
04:19 2 12.8 69 56,446 0.35 0 3.2 7.95 62.79 0 0.71 2.63 4.36
04:18 2 12.8 69 56,468 0.34 0 4.65 8.46 62.06 0 1.43 3.12 4.99
04:17 2 12.8 69 56,497 0.34 0 5.04 8.46 64.47 0 2.14 3.12 6.26
04:16 2 12.8 68 56,524 0.36 0 4.62 9.85 62.87 0 2.85 5.08 8.8
04:15 2 12.8 68 56,557 0.37 0 4.37 13.34 43.83 0 1.43 3.62 5.62
04:14 2 12.9 68 56,590 0.33 0 4.45 8.28 68.61 0 1.43 2.65 4.35
04:13 2 12.9 68 56,621 0.33 0 3.78 8.38 66.02 0 2.14 3.13 4.98
04:12 2 12.9 68 56,653 0.33 0 3.53 7.92 67.8 0 1.43 3.14 4.98
04:11 2 12.9 68 56,681 0.33 0 3.33 8.11 60.96 0 2.14 3.63 5.62
04:10 2 12.9 68 56,712 0.34 0 3.3 8.11 67.74 0 0.71 3.15 4.98
04:09 2 12.9 68 56,744 0.33 0 3.26 7.37 64.61 0 1.43 3.15 4.97
04:04 2 12.9 67 56,867 0.31 0 2.31 7.3 61.72 0 1.43 2.69 4.96
04:02 2 12.9 67 56,929 0.32 0 2.14 7.68 67.96 0 1.43 3.18 6.24
04:01 2 13 67 56,965 0.31 0 2.13 6.87 64.04 0 1.43 4.66 7.53
03:59 2 13 67 57,041 0.31 0 2.08 7.92 70 0 1.43 3.2 5.59
03:51 2 13.1 66 57,298 0.31 0 2.41 6.55 59.72 0 2.14 3.73 5.58